FW9064 Weather Reports


Display with metric or nautical units.
time (UTC)temp
F
wind
direction
speed
MPH
gust
MPH
rain 1hr
in
rain 24hr
in
rain mn
in
humidity
%
barometer
mb
20260509073416 58 108 0.0 0.0 0.00 0.00 0.00 99 1012.8
20260509072912 58 111 0.0 0.0 0.00 0.00 0.00 99 1012.6
20260509072409 58 109 0.0 0.0 0.00 0.00 0.00 99 1012.7
20260509071905 57 109 0.0 0.0 0.00 0.00 0.00 99 1012.3
20260509071403 57 107 0.0 0.0 0.00 0.00 0.00 99 1011.9
20260509070900 57 107 0.0 0.0 0.00 0.00 0.00 99 1012.2
20260509070356 57 108 0.0 0.0 0.00 0.00 0.00 99 1012.2
20260509065852 57 109 0.0 0.0 0.00 0.00 0.00 99 1012.1
20260509065349 57 107 0.0 0.0 0.00 0.00 0.00 99 1012.6
20260509064844 57 107 0.0 0.0 0.00 0.00 0.00 99 1012.4
20260509064342 57 107 0.0 0.0 0.00 0.00 0.00 99 1012.4
20260509063840 57 109 0.0 0.0 0.00 0.00 0.00 99 1012.6
20260509063336 57 110 0.0 0.0 0.00 0.00 0.00 99 1012.4
20260509062833 57 108 0.0 0.0 0.00 0.00 0.00 99 1012.1
20260509062330 57 117 0.0 0.0 0.00 0.00 0.00 99 1012.4
20260509061827 57 108 0.0 0.0 0.00 0.00 0.00 99 1012.4
20260509061326 56 107 0.0 0.0 0.00 0.00 0.00 99 1012.2
20260509060822 56 111 0.0 0.0 0.00 0.00 0.00 99 1012.6
20260509060319 56 112 0.0 0.0 0.00 0.00 0.00 99 1012.7
20260509055814 56 105 0.0 0.0 0.00 0.00 0.00 99 1013.0
20260509055310 56 108 0.0 0.0 0.00 0.00 0.00 99 1012.8
20260509054808 56 109 0.0 0.0 0.00 0.00 0.00 99 1013.0
20260509054304 56 109 0.0 0.0 0.00 0.00 0.00 99 1012.9
20260509053802 55 113 0.0 0.0 0.00 0.00 0.00 99 1012.8
20260509053259 55 109 0.0 0.0 0.00 0.00 0.00 99 1012.8
20260509052757 55 108 0.0 0.0 0.00 0.00 0.00 99 1013.3
20260509052254 55 108 0.0 0.0 0.00 0.00 0.00 99 1013.3
20260509051752 55 108 0.0 0.0 0.00 0.00 0.00 99 1013.1
20260509051250 55 108 0.0 0.0 0.00 0.00 0.00 99 1013.1
20260509050746 55 110 0.0 0.0 0.00 0.00 0.00 99 1013.1
20260509050243 55 111 0.0 0.0 0.00 0.00 0.00 99 1013.1
20260509045740 56 107 0.0 0.0 0.00 0.00 0.00 99 1013.3
20260509045237 56 111 0.0 0.0 0.00 0.00 0.00 99 1013.2
20260509044734 56 111 0.0 0.0 0.00 0.00 0.00 99 1013.0
20260509044232 56 107 0.0 0.0 0.00 0.00 0.00 99 1013.3
20260509043728 56 108 0.0 0.0 0.00 0.00 0.00 99 1013.1
20260509043224 56 107 0.0 0.0 0.00 0.00 0.00 99 1012.9
20260509042720 56 110 0.0 0.0 0.00 0.00 0.00 99 1013.0
20260509042217 56 110 0.0 0.0 0.00 0.00 0.00 99 1013.1
20260509041714 56 110 0.0 0.0 0.00 0.00 0.00 99 1013.2
20260509041211 56 110 0.0 0.0 0.00 0.00 0.00 99 1013.2
20260509040709 57 110 0.0 0.0 0.00 0.00 0.00 99 1013.2
20260509040205 57 111 0.0 0.0 0.00 0.00 0.00 99 1013.3
20260509035702 57 108 0.0 0.0 0.00 0.00 0.00 99 1013.1
20260509035159 57 110 0.0 0.0 0.00 0.00 0.00 99 1013.1
20260509034657 57 113 0.0 0.0 0.00 0.00 0.00 99 1013.2
20260509034154 57 108 0.0 0.0 0.00 0.00 0.00 99 1013.3
20260509033651 57 106 0.0 0.0 0.00 0.00 0.00 99 1013.2
20260509033147 57 107 0.0 0.0 0.00 0.00 0.00 99 1013.4
20260509032645 57 112 0.0 0.0 0.00 0.00 0.00 99 1013.7
20260509032142 57 108 0.0 0.0 0.00 0.00 0.00 99 1013.5
20260509031639 57 106 0.0 0.0 0.00 0.00 0.00 99 1013.1
20260509031136 57 112 0.0 0.0 0.00 0.00 0.00 99 1013.2
20260509030635 57 112 0.0 0.0 0.00 0.00 0.00 99 1012.6
20260509030132 57 112 0.0 0.0 0.00 0.00 0.00 99 1013.2
20260509025628 57 110 0.0 0.0 0.00 0.00 0.00 99 1013.1
20260509025123 58 108 0.0 0.0 0.00 0.00 0.00 99 1013.3
20260509024619 58 111 0.0 0.0 0.00 0.00 0.00 99 1013.4
20260509024115 58 108 0.0 0.0 0.00 0.00 0.00 99 1013.0
20260509023614 58 110 0.0 0.0 0.00 0.00 0.00 99 1013.4
20260509023110 58 107 0.0 0.0 0.00 0.00 0.00 99 1013.5
20260509022606 58 107 0.0 0.0 0.00 0.00 0.00 98 1013.3
20260509022105 58 111 0.0 0.0 0.00 0.00 0.00 98 1013.4
20260509021601 58 108 0.0 0.0 0.00 0.00 0.00 98 1013.4
20260509021059 58 108 0.0 0.0 0.00 0.00 0.00 98 1013.4
20260509020557 58 108 0.0 0.0 0.00 0.00 0.00 98 1013.3
20260509020053 59 110 0.0 0.0 0.00 0.00 0.00 98 1013.3
20260509015552 59 110 0.0 0.0 0.00 0.00 0.00 98 1013.1
20260509015049 59 112 0.0 0.0 0.00 0.00 0.00 98 1013.2
20260509014545 59 109 0.0 0.0 0.00 0.00 0.00 98 1013.2
20260509014042 59 110 0.0 0.0 0.00 0.00 0.00 98 1013.1
20260509013539 59 112 0.0 0.0 0.00 0.00 0.00 98 1013.2
20260509013034 59 112 0.0 0.0 0.00 0.00 0.00 98 1013.2
20260509012531 59 108 0.0 0.0 0.00 0.00 0.00 98 1013.3
20260509012028 59 110 0.0 0.0 0.00 0.00 0.00 98 1013.0
20260509011526 59 111 0.0 0.0 0.00 0.00 0.00 98 1013.0
20260509011023 59 112 0.0 0.0 0.00 0.00 0.00 97 1013.2
20260509010521 60 112 0.0 0.0 0.00 0.00 0.00 97 1013.4
20260509010017 60 112 0.0 0.0 0.00 0.00 0.00 97 1013.3
20260509005515 60 112 0.0 0.0 0.00 0.00 0.00 97 1013.4
20260509005015 60 111 0.0 0.0 0.00 0.00 0.00 97 1013.3
20260509004512 60 112 0.0 0.0 0.00 0.00 0.00 96 1013.5
20260509004009 60 110 0.0 0.0 0.00 0.00 0.00 96 1013.4
20260509003508 61 110 0.0 0.0 0.00 0.00 0.00 96 1013.5
20260509003004 61 109 0.0 0.0 0.00 0.00 0.00 95 1013.4
20260509002503 61 110 0.0 0.0 0.00 0.00 0.00 95 1013.5
20260509001959 61 110 0.0 0.0 0.00 0.00 0.00 95 1013.3
20260509001456 61 112 0.0 0.0 0.00 0.00 0.00 95 1013.3
20260509000952 62 111 0.0 0.0 0.00 0.00 0.00 95 1013.2
20260509000451 62 110 0.0 0.0 0.00 0.00 0.00 94 1013.5
20260508235946 62 111 0.0 0.0 0.00 0.00 0.00 94 1013.6
20260508235444 62 115 0.0 0.0 0.00 0.00 0.00 94 1013.7
20260508234940 62 108 0.0 0.0 0.00 0.00 0.00 93 1014.1
20260508234437 62 110 0.0 0.0 0.00 0.00 0.00 92 1014.1
20260508233935 62 110 0.0 0.0 0.00 0.00 0.00 92 1014.2
20260508233434 62 111 0.0 0.0 0.00 0.00 0.00 91 1014.1
20260508232931 63 108 0.0 0.0 0.00 0.00 0.00 90 1014.0
20260508232428 63 107 0.0 0.0 0.00 0.00 0.00 90 1014.4
20260508231925 63 110 0.0 0.0 0.00 0.00 0.00 90 1014.3
20260508231422 63 108 0.0 0.0 0.00 0.00 0.00 89 1014.6
20260508230919 63 105 0.0 0.0 0.00 0.00 0.00 88 1014.4
20260508230415 64 107 0.0 0.0 0.00 0.00 0.00 87 1014.7
20260508225913 64 112 0.0 0.0 0.00 0.00 0.00 86 1014.3
20260508225409 64 108 0.0 0.0 0.00 0.00 0.00 86 1014.3
20260508224907 64 110 0.0 0.0 0.00 0.00 0.00 87 1014.2
20260508224404 64 113 0.0 0.0 0.00 0.00 0.00 87 1014.4
20260508223902 64 112 0.0 0.0 0.00 0.00 0.00 87 1014.2
20260508223359 64 107 0.0 0.0 0.00 0.00 0.00 87 1014.6
20260508222856 64 106 0.0 0.0 0.00 0.00 0.00 87 1014.3
20260508222353 64 109 0.0 0.0 0.00 0.00 0.00 86 1014.6
20260508221850 64 113 0.0 0.0 0.00 0.00 0.00 87 1014.5
20260508221345 65 113 0.0 0.0 0.00 0.00 0.00 88 1014.3
20260508220842 65 111 0.0 0.0 0.00 0.00 0.00 87 1014.5
20260508220339 65 111 0.0 0.0 0.00 0.00 0.00 86 1014.4
20260508215835 65 113 0.0 0.0 0.00 0.00 0.00 86 1014.4
20260508215332 65 110 0.0 0.0 0.00 0.00 0.00 85 1014.4
20260508214829 66 116 0.0 0.0 0.00 0.00 0.00 84 1014.3
20260508214326 66 124 0.0 0.0 0.00 0.00 0.00 81 1014.4
20260508213823 65 113 0.0 0.0 0.00 0.00 0.00 83 1014.5
20260508213320 65 111 0.0 0.0 0.00 0.00 0.00 82 1014.2
20260508212816 65 117 0.0 0.0 0.00 0.00 0.00 81 1014.9
20260508212312 66 111 0.0 0.0 0.00 0.00 0.00 82 1014.6
20260508211808 66 109 0.0 0.0 0.00 0.00 0.00 80 1014.7
20260508211304 66 114 0.0 0.0 0.00 0.00 0.00 80 1014.6
20260508210802 66 124 0.0 0.0 0.00 0.00 0.00 79 1014.6
20260508210258 66 111 0.0 0.0 0.00 0.00 0.00 80 1014.9
20260508205755 66 113 0.0 0.0 0.00 0.00 0.00 78 1014.7
20260508205251 66 112 0.0 0.0 0.00 0.00 0.00 78 1014.9
20260508204748 66 130 1.0 1.0 0.00 0.00 0.00 74 1014.8
20260508204244 66 116 0.0 0.0 0.00 0.00 0.00 73 1014.8
20260508203740 66 118 0.0 0.0 0.00 0.00 0.00 73 1014.7
20260508203237 67 111 0.0 0.0 0.00 0.00 0.00 74 1014.7
20260508202732 67 113 0.0 0.0 0.00 0.00 0.00 75 1014.7
20260508202230 66 107 0.0 0.0 0.00 0.00 0.00 71 1014.8
20260508201727 67 107 0.0 0.0 0.00 0.00 0.00 71 1014.6
20260508201223 67 110 0.0 0.0 0.00 0.00 0.00 71 1015.0
20260508200720 66 109 0.0 0.0 0.00 0.00 0.00 70 1015.1
20260508200217 66 128 0.0 1.0 0.00 0.00 0.00 69 1015.0
20260508195713 67 107 0.0 0.0 0.00 0.00 0.00 72 1015.0
20260508195209 67 111 0.0 0.0 0.00 0.00 0.00 72 1014.8
20260508194706 67 104 0.0 0.0 0.00 0.00 0.00 70 1014.8
20260508194203 67 131 0.0 0.0 0.00 0.00 0.00 71 1015.1
20260508193700 68 111 0.0 0.0 0.00 0.00 0.00 72 1015.2
20260508193157 67 111 0.0 0.0 0.00 0.00 0.00 69 1015.3
20260508192653 67 108 0.0 0.0 0.00 0.00 0.00 68 1015.3
20260508192151 67 113 0.0 1.0 0.00 0.00 0.00 70 1015.3
20260508191648 67 110 0.0 0.0 0.00 0.00 0.00 67 1015.0
20260508191144 67 125 1.0 1.0 0.00 0.00 0.00 68 1014.9
20260508190642 67 78 1.0 2.0 0.00 0.00 0.00 69 1014.6
20260508190138 67 115 0.0 0.0 0.00 0.00 0.00 71 1015.2
20260508185635 67 104 0.0 0.0 0.00 0.00 0.00 70 1015.1
20260508185132 67 109 0.0 0.0 0.00 0.00 0.00 68 1015.1
20260508184629 67 103 0.0 1.0 0.00 0.00 0.00 68 1015.1
20260508184126 67 111 0.0 1.0 0.00 0.00 0.00 70 1015.4
20260508183623 67 110 0.0 0.0 0.00 0.00 0.00 70 1015.8
20260508183119 67 124 0.0 1.0 0.00 0.00 0.00 70 1016.1
20260508182615 68 133 0.0 1.0 0.00 0.00 0.00 69 1016.0
20260508182112 67 118 0.0 1.0 0.00 0.00 0.00 68 1016.2
20260508181607 67 176 2.0 2.0 0.00 0.00 0.00 66 1016.4
20260508181105 67 115 0.0 0.0 0.00 0.00 0.00 68 1016.4
20260508180601 67 119 0.0 0.0 0.00 0.00 0.00 69 1016.2
20260508180058 68 121 0.0 1.0 0.00 0.00 0.00 66 1016.1
20260508175554 68 113 0.0 0.0 0.00 0.00 0.00 67 1016.2
20260508175052 68 104 0.0 0.0 0.00 0.00 0.00 68 1016.5
20260508174549 68 126 0.0 1.0 0.00 0.00 0.00 66 1016.7
20260508174046 68 110 0.0 0.0 0.00 0.00 0.00 67 1016.8
20260508173543 68 108 0.0 0.0 0.00 0.00 0.00 68 1016.5
20260508173039 68 94 1.0 1.0 0.00 0.00 0.00 66 1016.5
20260508172536 68 108 0.0 0.0 0.00 0.00 0.00 63 1016.4
20260508172033 68 109 0.0 1.0 0.00 0.00 0.00 62 1016.9
20260508171529 69 117 0.0 0.0 0.00 0.00 0.00 64 1017.1
20260508171026 68 111 1.0 2.0 0.00 0.00 0.00 65 1016.8
20260508170523 68 79 1.0 3.0 0.00 0.00 0.00 63 1016.9
20260508170020 68 61 1.0 1.0 0.00 0.00 0.00 64 1016.8
20260508165518 68 109 0.0 0.0 0.00 0.00 0.00 63 1017.1
20260508165014 68 108 0.0 1.0 0.00 0.00 0.00 63 1017.2
20260508164511 68 131 1.0 1.0 0.00 0.00 0.00 63 1017.2
20260508164007 67 106 0.0 1.0 0.00 0.00 0.00 62 1017.4
20260508163505 67 107 1.0 1.0 0.00 0.00 0.00 65 1017.5
20260508163001 67 105 0.0 0.0 0.00 0.00 0.00 64 1017.3
20260508162458 68 112 1.0 2.0 0.00 0.00 0.00 66 1017.4
20260508161955 69 89 1.0 1.0 0.00 0.00 0.00 63 1017.5
20260508161452 68 101 0.0 1.0 0.00 0.00 0.00 63 1017.8
20260508160949 67 117 1.0 1.0 0.00 0.00 0.00 62 1017.5
20260508160448 68 113 0.0 0.0 0.00 0.00 0.00 62 1017.7
20260508155944 67 123 0.0 1.0 0.00 0.00 0.00 62 1017.7
20260508155441 66 102 1.0 1.0 0.00 0.00 0.00 63 1017.8
20260508154938 66 123 2.0 3.0 0.00 0.00 0.00 64 1018.2
20260508154436 66 87 1.0 2.0 0.00 0.00 0.00 64 1018.0
20260508153932 66 105 0.0 0.0 0.00 0.00 0.00 68 1017.8
20260508153429 65 108 0.0 0.0 0.00 0.00 0.00 68 1017.8
20260508152925 65 103 1.0 2.0 0.00 0.00 0.00 66 1017.7
20260508152422 65 128 1.0 2.0 0.00 0.00 0.00 69 1018.0
20260508151919 65 124 1.0 2.0 0.00 0.00 0.00 66 1017.9
20260508151416 64 50 3.0 3.0 0.00 0.00 0.00 69 1017.7
20260508150912 64 137 0.0 0.0 0.00 0.00 0.00 70 1018.0
20260508150409 64 110 0.0 0.0 0.00 0.00 0.00 70 1018.1
20260508145905 64 95 1.0 1.0 0.00 0.00 0.00 70 1017.9
20260508145401 64 56 2.0 3.0 0.00 0.00 0.00 68 1018.0
20260508144858 65 105 0.0 1.0 0.00 0.00 0.00 71 1018.1
20260508144356 65 109 0.0 0.0 0.00 0.00 0.00 71 1018.2
20260508143853 65 114 0.0 1.0 0.00 0.00 0.00 71 1018.2
20260508143350 64 126 1.0 1.0 0.00 0.00 0.00 69 1018.4
20260508142847 65 106 1.0 2.0 0.00 0.00 0.00 71 1018.1
20260508142344 64 123 2.0 2.0 0.00 0.00 0.00 70 1018.3
20260508141840 64 101 2.0 3.0 0.00 0.00 0.00 71 1018.2
20260508141337 63 105 0.0 0.0 0.00 0.00 0.00 73 1018.4
20260508140835 63 109 0.0 0.0 0.00 0.00 0.00 73 1018.5
20260508140331 63 109 0.0 0.0 0.00 0.00 0.00 73 1018.4
20260508135827 64 115 0.0 2.0 0.00 0.00 0.00 76 1018.7
20260508135324 62 117 0.0 1.0 0.00 0.00 0.00 77 1018.6
20260508134820 62 105 0.0 0.0 0.00 0.00 0.00 77 1018.6
20260508134317 61 97 0.0 1.0 0.00 0.00 0.00 78 1018.7
20260508133813 61 93 0.0 0.0 0.00 0.00 0.00 77 1018.6
20260508133311 61 107 0.0 0.0 0.00 0.00 0.00 79 1018.8
20260508132808 61 119 0.0 0.0 0.00 0.00 0.00 81 1018.6
20260508132306 60 101 0.0 0.0 0.00 0.00 0.00 84 1018.6
20260508131802 59 105 0.0 0.0 0.00 0.00 0.00 86 1018.5
20260508131258 58 108 0.0 0.0 0.00 0.00 0.00 91 1018.4
20260508130754 58 110 0.0 0.0 0.00 0.00 0.00 95 1018.4
20260508130252 57 110 0.0 0.0 0.00 0.00 0.00 97 1018.3
20260508125747 57 111 0.0 0.0 0.00 0.00 0.00 98 1018.1
20260508125244 56 109 0.0 0.0 0.00 0.00 0.00 99 1018.1
20260508124742 56 107 0.0 0.0 0.00 0.00 0.00 99 1018.2
20260508124239 55 108 0.0 0.0 0.00 0.00 0.00 99 1018.2
20260508123738 55 110 0.0 0.0 0.00 0.00 0.00 99 1018.2
20260508123235 55 112 0.0 0.0 0.00 0.00 0.00 99 1018.0
20260508122731 54 113 0.0 0.0 0.00 0.00 0.00 99 1017.9
20260508122228 54 122 0.0 0.0 0.00 0.00 0.00 99 1017.9
20260508121725 54 109 0.0 0.0 0.00 0.00 0.00 99 1017.8
20260508121224 54 110 0.0 0.0 0.00 0.00 0.00 99 1017.7
20260508120721 53 111 0.0 0.0 0.00 0.00 0.00 99 1017.7
20260508120219 53 111 0.0 0.0 0.00 0.00 0.00 99 1017.8
20260508115716 53 111 0.0 0.0 0.00 0.00 0.00 99 1017.7
20260508115213 53 111 0.0 0.0 0.00 0.00 0.00 99 1017.6
20260508114710 53 110 0.0 0.0 0.00 0.00 0.00 99 1017.5
20260508114207 52 108 0.0 0.0 0.00 0.00 0.00 99 1017.2
20260508113703 52 110 0.0 0.0 0.00 0.00 0.00 99 1017.4
20260508113202 52 110 0.0 0.0 0.00 0.00 0.00 99 1017.3
20260508112657 52 109 0.0 0.0 0.00 0.00 0.00 99 1017.5
20260508112155 52 109 0.0 0.0 0.00 0.00 0.00 99 1017.2
20260508111651 52 109 0.0 0.0 0.00 0.00 0.00 99 1017.0
20260508111149 52 109 0.0 0.0 0.00 0.00 0.00 99 1017.0
20260508110646 52 110 0.0 0.0 0.00 0.00 0.00 99 1017.0
20260508110143 52 109 0.0 0.0 0.00 0.00 0.00 99 1016.9
20260508105637 52 108 0.0 0.0 0.00 0.00 0.00 99 1017.0
20260508105135 52 107 0.0 0.0 0.00 0.00 0.00 99 1017.0
20260508104632 52 108 0.0 0.0 0.00 0.00 0.00 99 1017.0
20260508104129 52 110 0.0 0.0 0.00 0.00 0.00 99 1016.8
20260508103626 52 108 0.0 0.0 0.00 0.00 0.00 99 1016.6
20260508103123 52 110 0.0 0.0 0.00 0.00 0.00 99 1016.5
20260508102620 52 108 0.0 0.0 0.00 0.00 0.00 99 1016.4
20260508102118 52 108 0.0 0.0 0.00 0.00 0.00 99 1016.5
20260508101615 52 111 0.0 0.0 0.00 0.00 0.00 99 1016.6
20260508101113 52 110 0.0 0.0 0.00 0.00 0.00 99 1016.2
20260508100610 52 111 0.0 0.0 0.00 0.00 0.00 99 1016.5
20260508100108 52 110 0.0 0.0 0.00 0.00 0.00 99 1016.2
20260508095604 52 111 0.0 0.0 0.00 0.00 0.00 99 1016.0
20260508095101 52 110 0.0 0.0 0.00 0.00 0.00 99 1016.1
20260508094558 52 110 0.0 0.0 0.00 0.00 0.00 99 1015.6
20260508094055 52 117 0.0 0.0 0.00 0.00 0.00 99 1015.5
20260508093552 52 109 0.0 0.0 0.00 0.00 0.00 99 1015.6
20260508093050 52 110 0.0 0.0 0.00 0.00 0.00 99 1015.4
20260508092547 52 108 0.0 0.0 0.00 0.00 0.00 99 1015.3
20260508092046 52 110 0.0 0.0 0.00 0.00 0.00 99 1015.4
20260508091542 52 110 0.0 0.0 0.00 0.00 0.00 99 1015.1
20260508091039 52 109 0.0 0.0 0.00 0.00 0.00 99 1015.3
20260508090537 52 110 0.0 0.0 0.00 0.00 0.00 99 1014.8
20260508090033 52 110 0.0 0.0 0.00 0.00 0.00 99 1015.2
20260508085530 53 110 0.0 0.0 0.00 0.00 0.00 99 1015.1
20260508085027 53 102 0.0 0.0 0.00 0.00 0.00 99 1015.1
20260508084524 53 110 0.0 0.0 0.00 0.00 0.00 99 1015.0
20260508084022 52 110 0.0 0.0 0.00 0.00 0.00 99 1014.8
20260508083519 53 111 0.0 0.0 0.00 0.00 0.00 99 1014.9
20260508083015 53 109 0.0 0.0 0.00 0.00 0.00 99 1015.2
20260508082511 53 110 0.0 0.0 0.00 0.00 0.00 99 1015.0
20260508082009 53 110 0.0 0.0 0.00 0.00 0.00 99 1014.8
20260508081506 53 109 0.0 0.0 0.00 0.00 0.00 99 1014.8
20260508081001 53 111 0.0 0.0 0.00 0.00 0.00 99 1014.8
20260508080500 54 110 0.0 0.0 0.00 0.00 0.00 99 1014.9
20260508075956 54 106 0.0 0.0 0.00 0.00 0.00 99 1014.9
20260508075453 54 109 0.0 0.0 0.00 0.00 0.00 99 1015.0
20260508074951 53 109 0.0 0.0 0.00 0.00 0.00 99 1015.2
20260508074449 53 110 0.0 0.0 0.00 0.00 0.00 99 1015.0
20260508073945 54 110 0.0 0.0 0.00 0.00 0.00 99 1015.3